VK3ANZ Weather Reports


time (UTC)temp
C
wind
direction
speed
KPH
gust
KPH
rain 1hr
cm
rain 24hr
cm
rain mn
cm
humidity
%
barometer
mb
20260510033517 15 0.0 0.0 0.00 0.00 0.00 27 1030.9
20260510032545 15 101 1.6 8.0 0.00 0.00 0.00 28 1030.6
20260510031526 15 161 0.0 8.0 0.00 0.00 0.00 28 1030.9
20260510030526 15 0.0 0.0 0.00 0.00 0.00 29 1031.0
20260510025537 15 194 0.0 3.2 0.00 0.00 0.00 30 1031.0
20260510024525 15 149 1.6 8.0 0.00 0.00 0.00 30 1031.2
20260510023517 15 0.0 0.0 0.00 0.00 0.00 29 1031.3
20260510022545 15 164 0.0 8.0 0.00 0.00 0.00 30 1031.5
20260510021516 15 0.0 0.0 0.00 0.00 0.00 30 1031.5
20260510020525 15 0.0 0.0 0.00 0.00 0.00 30 1031.6
20260510015517 15 174 1.6 8.0 0.00 0.00 0.00 30 1031.9
20260510014525 15 0.0 0.0 0.00 0.00 0.00 30 1031.9
20260510013517 15 133 1.6 11.3 0.00 0.00 0.00 30 1032.0
20260510012517 15 0.0 0.0 0.00 0.00 0.00 30 1032.1
20260510011516 15 101 0.0 3.2 0.00 0.00 0.00 31 1032.1
20260510010525 15 188 1.6 8.0 0.00 0.00 0.00 31 1032.1
20260510005537 15 0.0 0.0 0.00 0.00 0.00 31 1032.1
20260510004524 15 126 0.0 3.2 0.00 0.00 0.00 31 1032.0
20260510003516 14 0.0 0.0 0.00 0.00 0.00 31 1032.1
20260510002544 14 0.0 0.0 0.00 0.00 0.00 32 1032.1
20260510001517 14 270 0.0 3.2 0.00 0.00 0.00 32 1032.1
20260510000525 14 169 1.6 8.0 0.00 0.00 0.00 33 1032.1
20260509235516 14 0.0 0.0 0.00 0.00 0.00 33 1032.0
20260509234525 13 126 0.0 11.3 0.00 0.00 0.00 35 1032.1
20260509233517 13 0.0 0.0 0.00 0.00 0.00 37 1032.0
20260509232526 13 0.0 0.0 0.00 0.00 0.00 40 1032.0
20260509231536 13 0.0 0.0 0.00 0.00 0.00 42 1032.0
20260509230524 13 0.0 0.0 0.00 0.00 0.00 45 1032.0
20260509225517 13 0.0 0.0 0.00 0.00 0.00 49 1031.9
20260509224525 12 0.0 0.0 0.00 0.00 0.00 52 1031.8
20260509223537 12 0.0 0.0 0.00 0.00 0.00 53 1031.8
20260509221516 12 0.0 0.0 0.00 0.00 0.00 59 1031.6
20260509220525 12 0.0 0.0 0.00 0.00 0.00 63 1031.3
20260509215536 12 0.0 0.0 0.00 0.00 0.00 62 1031.2
20260509214524 12 0.0 0.0 0.00 0.00 0.00 62 1031.1
20260509213516 12 0.0 0.0 0.00 0.00 0.00 61 1030.9
20260509212524 12 0.0 0.0 0.00 0.00 0.00 60 1030.8
20260509211516 12 0.0 0.0 0.00 0.00 0.00 59 1030.8
20260509210524 12 0.0 0.0 0.00 0.00 0.00 58 1030.7
20260509205516 12 0.0 0.0 0.00 0.00 0.00 58 1030.5
20260509204518 12 0.0 0.0 0.00 0.00 0.00 58 1030.4
20260509203529 12 0.0 0.0 0.00 0.00 0.00 58 1030.4
20260509202524 12 0.0 0.0 0.00 0.00 0.00 59 1030.3
20260509201532 12 0.0 0.0 0.00 0.00 0.00 62 1030.2
20260509200524 12 0.0 0.0 0.00 0.00 0.00 71 1030.2
20260509195533 12 0.0 0.0 0.00 0.00 0.00 76 1030.0
20260509194524 12 0.0 0.0 0.00 0.00 0.00 77 1030.0
20260509193529 12 0.0 0.0 0.00 0.00 0.00 78 1029.9
20260509192523 12 0.0 0.0 0.00 0.00 0.00 79 1029.7
20260509191526 12 0.0 0.0 0.00 0.00 0.00 79 1029.6
20260509190524 12 0.0 0.0 0.00 0.00 0.00 79 1029.5
20260509185533 12 0.0 0.0 0.00 0.00 0.00 80 1029.5
20260509184524 13 236 0.0 3.2 0.00 0.00 0.00 82 1029.3
20260509183532 13 0.0 0.0 0.00 0.00 0.00 82 1029.3
20260509182524 13 0.0 0.0 0.00 0.00 0.00 82 1029.2
20260509181516 13 0.0 0.0 0.00 0.00 0.00 82 1029.1
20260509180529 13 0.0 0.0 0.00 0.00 0.00 82 1029.1
20260509175528 13 0.0 0.0 0.00 0.00 0.00 82 1029.0
20260509174523 13 0.0 0.0 0.00 0.00 0.00 82 1029.0
20260509173534 13 0.0 0.0 0.00 0.00 0.00 81 1029.0
20260509172524 13 0.0 0.0 0.00 0.00 0.00 81 1029.0
20260509171522 13 0.0 0.0 0.00 0.00 0.00 81 1029.1
20260509170518 13 0.0 0.0 0.00 0.00 0.00 81 1029.0
20260509165533 13 0.0 0.0 0.00 0.00 0.00 81 1029.1
20260509164524 13 0.0 0.0 0.00 0.00 0.00 81 1029.2
20260509163533 13 0.0 0.0 0.00 0.00 0.00 81 1029.2
20260509162528 13 0.0 0.0 0.00 0.00 0.00 80 1029.2
20260509161533 13 0.0 0.0 0.00 0.00 0.00 80 1029.3
20260509160524 13 0.0 0.0 0.00 0.00 0.00 80 1029.4
20260509155532 13 0.0 0.0 0.00 0.00 0.00 80 1029.4
20260509154523 12 0.0 0.0 0.00 0.00 0.00 80 1029.3
20260509153534 12 0.0 0.0 0.00 0.00 0.00 80 1029.3
20260509152523 12 0.0 0.0 0.00 0.00 0.00 79 1029.3
20260509151553 12 0.0 0.0 0.00 0.00 0.00 79 1029.3
20260509150517 12 0.0 0.0 0.00 0.00 0.00 78 1029.3
20260509145533 12 0.0 0.0 0.00 0.00 0.00 77 1029.2
20260509144523 12 0.0 0.0 0.00 0.00 0.00 76 1029.3
20260509143534 12 0.0 0.0 0.00 0.00 0.00 75 1029.4
20260509142524 12 0.0 0.0 0.00 0.00 0.00 73 1029.4
20260509141533 12 0.0 0.0 0.00 0.00 0.00 70 1029.5
20260509140558 12 0.0 0.0 0.00 0.00 0.00 65 1029.6
20260509135533 13 0.0 0.0 0.00 0.00 0.00 59 1029.5
20260509134524 13 0.0 0.0 0.00 0.00 0.00 55 1029.4
20260509133533 13 0.0 0.0 0.00 0.00 0.00 51 1029.4
20260509132523 13 0.0 0.0 0.00 0.00 0.00 47 1029.4
20260509131532 13 0.0 0.0 0.00 0.00 0.00 46 1029.4
20260509130523 13 0.0 0.0 0.00 0.00 0.00 45 1029.5
20260509125530 13 0.0 0.0 0.00 0.00 0.00 45 1029.5
20260509124523 13 0.0 0.0 0.00 0.00 0.00 45 1029.5
20260509123521 13 0.0 0.0 0.00 0.00 0.00 45 1029.5
20260509122523 13 0.0 0.0 0.00 0.00 0.00 45 1029.5
20260509121519 13 0.0 0.0 0.00 0.00 0.00 45 1029.4
20260509120521 13 0.0 0.0 0.00 0.00 0.00 45 1029.5
20260509115533 13 0.0 0.0 0.00 0.00 0.00 45 1029.4
20260509114523 13 0.0 0.0 0.00 0.00 0.00 44 1029.4
20260509113523 13 0.0 0.0 0.00 0.00 0.00 44 1029.2
20260509112543 13 0.0 0.0 0.00 0.00 0.00 44 1029.2
20260509111532 13 0.0 0.0 0.00 0.00 0.00 45 1029.2
20260509110523 13 0.0 0.0 0.00 0.00 0.00 46 1029.1
20260509105532 13 0.0 0.0 0.00 0.00 0.00 46 1029.0
20260509104523 13 0.0 0.0 0.00 0.00 0.00 46 1029.0
20260509103532 13 0.0 0.0 0.00 0.00 0.00 45 1028.8
20260509102522 13 0.0 0.0 0.00 0.00 0.00 44 1028.9
20260509101532 13 266 0.0 3.2 0.00 0.00 0.00 44 1028.9
20260509100546 13 0.0 0.0 0.00 0.00 0.00 44 1029.0
20260509095550 13 0.0 0.0 0.00 0.00 0.00 44 1028.9
20260509094529 13 0.0 0.0 0.00 0.00 0.00 44 1028.8
20260509093552 13 0.0 0.0 0.00 0.00 0.00 42 1028.9
20260509092523 13 0.0 0.0 0.00 0.00 0.00 42 1028.9
20260509091530 13 0.0 0.0 0.00 0.00 0.00 42 1028.7
20260509090552 13 0.0 0.0 0.00 0.00 0.00 42 1028.7
20260509085533 13 273 0.0 8.0 0.00 0.00 0.00 41 1028.5
20260509084542 13 269 1.6 8.0 0.00 0.00 0.00 41 1028.6
20260509083530 13 225 0.0 3.2 0.00 0.00 0.00 41 1028.4
20260509082523 13 0.0 0.0 0.00 0.00 0.00 39 1028.2
20260509081532 13 0.0 0.0 0.00 0.00 0.00 39 1028.2
20260509080523 14 0.0 0.0 0.00 0.00 0.00 39 1028.1
20260509075532 14 114 0.0 8.0 0.00 0.00 0.00 39 1028.1
20260509074523 14 0.0 0.0 0.00 0.00 0.00 39 1028.0
20260509073552 14 0.0 0.0 0.00 0.00 0.00 39 1027.9
20260509072540 14 0.0 0.0 0.00 0.00 0.00 38 1027.6
20260509071524 15 0.0 0.0 0.00 0.00 0.00 37 1027.6
20260509070522 15 0.0 0.0 0.00 0.00 0.00 36 1027.6
20260509065532 15 254 0.0 3.2 0.00 0.00 0.00 35 1027.6
20260509064522 15 0.0 0.0 0.00 0.00 0.00 35 1027.6
20260509063532 15 267 1.6 8.0 0.00 0.00 0.00 35 1027.4
20260509062523 15 282 0.0 3.2 0.00 0.00 0.00 35 1027.5
20260509061530 15 254 0.0 3.2 0.00 0.00 0.00 34 1027.3
20260509060522 15 0.0 0.0 0.00 0.00 0.00 34 1027.3
20260509055550 15 0.0 0.0 0.00 0.00 0.00 32 1027.4
20260509054522 15 0.0 0.0 0.00 0.00 0.00 34 1027.3
20260509053532 15 0.0 0.0 0.00 0.00 0.00 34 1027.3
20260509052523 15 0.0 0.0 0.00 0.00 0.00 34 1027.2
20260509051530 15 270 1.6 8.0 0.00 0.00 0.00 33 1027.5
20260509050522 15 164 0.0 3.2 0.00 0.00 0.00 34 1027.4
20260509045532 15 270 0.0 3.2 0.00 0.00 0.00 34 1027.4
20260509044549 15 257 0.0 8.0 0.00 0.00 0.00 34 1027.4
20260509043519 15 0.0 0.0 0.00 0.00 0.00 34 1027.5
20260509042522 15 0.0 0.0 0.00 0.00 0.00 35 1027.5
20260509041529 15 283 0.0 3.2 0.00 0.00 0.00 35 1027.4
20260509040522 15 256 1.6 11.3 0.00 0.00 0.00 34 1027.3
20260509035530 15 259 0.0 8.0 0.00 0.00 0.00 35 1027.4
20260509034541 15 261 0.0 3.2 0.00 0.00 0.00 35 1027.5